Regional Weather Roundup
Issued by NWS

Home | Current Version | Previous Version | Text Only | Print | Product List | Glossary On
Versions: 1 2 3 4 5 6 7 8 9 10 11 12 13 14 15 16 17 18 19 20 21 22 23 24 25 26 27 28 29 30 31 32 33 34 35 36 37 38 39 40 41 42 43 44 45 46 47 48 49 50
306
ASUS43 KMKX 231911
RWRWI

WISCONSIN REGIONAL WEATHER ROUNDUP
NATIONAL WEATHER SERVICE MILWAUKEE/SULLIVAN WI
200 PM CDT SUN JUL 23 2017

NOTE: "FAIR" INDICATES FEW OR NO CLOUDS BELOW 12,000 FEET WITH NO
SIGNIFICANT WEATHER AND/OR OBSTRUCTIONS TO VISIBILITY.

WIZ001-002-006>008-014>016-023>028-232000-
NORTHWEST WISCONSIN

CITY           SKY/WX    TMP DP  RH WIND       PRES   REMARKS
SUPERIOR ARPT  NOT AVBL
ASHLAND        CLOUDY    60  58  92 N12       29.97R
HAYWARD        CLOUDY    62  57  83 N8        29.96S
SIREN          CLOUDY    65  56  73 N10       29.97R
CUMBERLAND     CLOUDY    64  55  72 N8        29.96S
RICE LAKE      CLOUDY    65  56  73 NW7       29.96R
CHETEK         CLOUDY    67  59  75 N8        29.94R
LADYSMITH      CLOUDY    66  58  76 N15       29.95R
EAU CLAIRE     MOSUNNY   74  60  61 N13       29.90R
MENOMONIE      MOSUNNY   73  60  63 N16       29.92R
NEW RICHMOND   PTSUNNY   73  59  61 N14       29.94S
OSCEOLA        PTSUNNY   72  58  62 N14G21    29.97S
$$

WIZ003>005-009-010-017-018-232000-
NORTH CENTRAL WISCONSIN

CITY           SKY/WX    TMP DP  RH WIND       PRES   REMARKS
MANITOWISH WTR CLOUDY    61  61 100 NE7       29.93R
ARBOR VITAE    CLOUDY    63  58  84 N9        29.91S
WOODRUFF       CLOUDY    63  58  84 N9        29.91S
RHINELANDER    PTSUNNY   68  60  75 N9        29.90S
EAGLE RIVER    CLOUDY    63  59  87 N8        29.91S
LAND O LAKES   CLOUDY    62  58  87 N7        29.93S
PHILLIPS       CLOUDY    65  60  84 N7        29.91S
TOMAHAWK         N/A     69  59  71 N9G17     29.90S
MEDFORD        MOSUNNY   70  59  68 N13G21    29.88S
MERRILL        MOSUNNY   75  62  62 N13       29.86S
$$

WIZ029-030-035-036-043>047-232000-
CENTRAL WISCONSIN

CITY           SKY/WX    TMP DP  RH WIND       PRES   REMARKS
WAUSAU         MOSUNNY   78  57  48 NW14      29.83S
MOSINEE        PTSUNNY   79  59  50 NW12G21   29.85S HX  80
MARSHFIELD     MOSUNNY   79  60  52 NW17G23   29.85S HX  80
STEVENS POINT  CLOUDY    78  58  51 N14       29.84R
WAUPACA        MOSUNNY   84  57  39 W10G23    29.80F HX  83
WAUTOMA        MOSUNNY   83  61  47 W15       29.81F HX  83
WISC RAPIDS    MOSUNNY   83  59  44 NW14      29.84F HX  83
CAMP DOUGLAS   PTSUNNY   79  63  57 NW14G21   29.84S HX  80
$$

WIZ011>013-019>022-031-037>040-048>050-232000-
NORTHEAST WISCONSIN

CITY           SKY/WX    TMP DP  RH WIND       PRES   REMARKS
ANTIGO         PTSUNNY   75  62  62 N16       29.85S
SHAWANO        CLOUDY    80  62  53 NW3       29.80S HX  81
OCONTO         PTSUNNY   79  63  58 N8        29.78F HX  81
STURGEON BAY     N/A     74  66  76 N9        29.80S
GREEN BAY      LGT RAIN  72  69  90 CALM      29.79S
MANITOWOC      PTSUNNY   80  64  58 NW10      29.80S HX  82
APPLETON       PTSUNNY   81  55  41 W7        29.79F HX  80
CLINTONVILLE   CLOUDY    72  63  73 N5        29.80S
OSHKOSH        MOSUNNY   82  63  52 W8        29.79F HX  83
$$

WIZ032>034-041-042-053>061-232000-
SOUTHWEST WISCONSIN

CITY           SKY/WX    TMP DP  RH WIND       PRES   REMARKS
LA CROSSE      SUNNY     83  64  52 NW14      29.85S HX  84
SPARTA         MOSUNNY   78  59  51 NW14      29.86F
VIROQUA        MOSUNNY   76  60  57 NW14      29.88S
BOSCOBEL       SUNNY     85  62  46 NW10      29.83S HX  85
PRAIRIE DU CHI MOSUNNY   83  60  45 NW12G17   29.84S HX  83
PLATTEVILLE    MOSUNNY   81  71  72 NW10      29.82F HX  85
$$

WIZ056-057-062-063-064-067-068-232000-
SOUTH CENTRAL WISCONSIN

CITY           SKY/WX    TMP DP  RH WIND       PRES   REMARKS
REEDSBURG      PTSUNNY   80  62  54 NW8       29.83S HX  81
BARABOO/DELLS  MOSUNNY   83  57  40 NW9       29.83F HX  83
LONE ROCK      SUNNY     82  61  48 NW12      29.82S HX  83
MINERAL POINT  SUNNY     82  68  61 N14       29.83S HX  85
MADISON        MOSUNNY   81  64  56 N7        29.80F HX  82
MIDDLETON      SUNNY     83  64  53 NW8       29.82S HX  84
WATERTOWN      PTSUNNY   80  63  55 NW5       29.81S HX  81
MONROE         MOSUNNY   82  64  54 W15G22    29.80F HX  84
JANESVILLE     PTSUNNY   79  68  69 N16G23    29.78F HX  81
$$

WIZ051-052-058>065-066-070>072-232000-
SOUTHEAST WISCONSIN

CITY           SKY/WX    TMP DP  RH WIND       PRES   REMARKS
MILWAUKEE      PTSUNNY   83  63  50 NW12      29.79R HX  84
WAUKESHA       PTSUNNY   75  63  64 NW9       29.82R
MILWAUKEE/TIMM CLOUDY    79  61  53 W9        29.81R HX  80
RACINE         CLOUDY    82  66  58 N5        29.80S HX  84
KENOSHA        CLOUDY    83  61  47 W6        29.79S HX  83
FOND DU LAC    PTSUNNY   81  58  45 NW10      29.80F HX  81
SHEBOYGAN      PTSUNNY   80  66  62 NW9       29.79F HX  82
WEST BEND      CLOUDY    79  57  47 W9        29.81S HX  80
JUNEAU         MOSUNNY   79  60  52 W6        29.82F HX  80
$$

LSZ147-162-232000-
LAKE SUPERIOR

STATION/POSITION TIME  TEMP    WIND        PRES    WAVE
                       AIR SEA DIR/SP/G            HT/PER
                 (UTC) (F)     (DEG/KT/KT) (MB)    (FT/S)
W MID LAKE BUOY  1850   51 47   30/ 12/ 14 1014.7R   2/ 4
DEVILS ISLAND    1900   57      50/ 10/ 11 1015.2R
PORT WING        1640   57     310/  2/  3 1014.6
SAXON HARBOR     1840   58      20/  6/  9 1014.2R
$$

LMZ867-665-643>646-232000-
LAKE MICHIGAN

STATION/POSITION TIME  TEMP    WIND        PRES    WAVE
                       AIR SEA DIR/SP/G            HT/PER
                 (UTC) (F)     (DEG/KT/KT) (MB)    (FT/S)
CHAMBERS ISLAND  1840   69      30/ 11/ 14 1008.5S
S GREEN BAY BUOY 1900   72 76   50/  6/  6 1008.7
N MID LAKE BUOY  1850   65 67  330/ 16/ 17 1009.0R   2/ 3
NORTHPORT PIER   1840   68     350/ 16/ 19 1009.1S
KEWAUNEE LAKESHO 1848   72      50/  4/ 10 1008.0F
SHEBOYGAN LAKESH 1900   72      60/ 13/ 14 1008.0F
PORT WASHINGTON  1840   81     300/  6/  9 1009.5R
ATWATER BUOY     1809   73 69   40/  4/  6 1008.9F
MILWAUKEE LAKESH 1850   80     340/  6/  8   N/A
S MID LAKE BUOY  1850   73 71  280/  4/  6 1008.6F   1
KENOSHA   LAKESH 1900   84     300/  6/ 11 1008.1
$$

TC  - TEMPERATURE IN CELSIUS
VSB - VISIBILITY IN STATUTE MILES
WCI - WIND CHILL INDEX
HX  - HEAT INDEX





USA.gov is the U.S. government's official web portal to all federal, state and local government web resources and services.